Regional Weather Roundup
Issued by NWS

Home | Current Version | Previous Version | Graphics & Text | Print | Product List | Glossary On
Versions: 1 2 3 4 5 6 7 8 9 10 11 12 13 14 15 16 17 18 19 20 21 22 23 24 25 26 27 28 29 30 31 32 33 34 35 36 37 38 39 40 41 42 43 44 45 46 47 48 49 50
000
ASUS43 KDMX 011807
RWRIA

WEATHER ROUNDUP FOR IOWA
NATIONAL WEATHER SERVICE DES MOINES IA
100 PM CDT WED APR 01 2015

NOTE: "FAIR" INDICATES FEW OR NO CLOUDS BELOW 12,000 FEET WITH NO
SIGNIFICANT WEATHER AND/OR OBSTRUCTIONS TO VISIBILITY.

* - THESE STATIONS ARE NOT NWS STATIONS...THUS NOT UNDER NWS
QUALITY CONTROL.  THEY ALSO DO NOT REPORT WEATHER SUCH
AS PRECIPITATION OR FOG.

IAZ001>003-012>014-020>022-031>034-043>046-011900-
   NORTHWEST IOWA

CITY           SKY/WX    TMP DP  RH WIND       PRES   REMARKS
CARROLL *      SUNNY     79  36  21 S28G40    29.71F
CHEROKEE *       N/A     76  40  27 S28G36    29.64F
DENISON *      SUNNY     79  41  25 S28G38    29.66F
LE MARS *      SUNNY     79  43  27 S31G45    29.60F
ORANGE CITY *  SUNNY     79  37  22 S32G43    29.60F
SHELDON *      SUNNY     77  43  29 S37G47    29.58F
SIOUX CITY       N/A     80  43  26 S26G39    29.63F
6HR MIN TEMP:  51; 6HR MAX TEMP:  80;

SPENCER          N/A     79  41  25 S31G43    29.63F
6HR MIN TEMP:  53; 6HR MAX TEMP:  79;

STORM LAKE *   SUNNY     77  39  25 S33G44    29.66F
$$

IAZ055>058-069>071-079>083-090>094-011900-
   SOUTHWEST IOWA

CITY           SKY/WX    TMP DP  RH WIND       PRES   REMARKS
ATLANTIC *     SUNNY     79  41  25 S23G36    29.73F
AUDUBON *      SUNNY     79  30  17 S22G29    29.74F HAZE
CLARINDA *     SUNNY     77  45  31 S22G32    29.77F
COUNCIL BLFS * SUNNY     79  46  31 S23G32    29.71F
CRESTON *      SUNNY     75  43  31 S28G37    29.79F
HARLAN  *      SUNNY     77  43  29 S25G36    29.74F
LAMONI           N/A     75  44  33 S16G30    29.82F
6HR MIN TEMP:  48; 6HR MAX TEMP:  75;

RED OAK *      SUNNY     79  45  29 S26G37    29.74F
SHENANDOAH *   SUNNY     79  48  34 S29       29.74F
$$

IAZ047>049-059>061-072>074-084-011900-
   CENTRAL IOWA

CITY           SKY/WX    TMP DP  RH WIND       PRES   REMARKS
AMES             N/A     76  37  24 S25G32    29.77F
6HR MIN TEMP:  48; 6HR MAX TEMP:  77;

ANKENY *       SUNNY     77  37  24 S23G33    29.78F
CHARITON *     SUNNY     75  39  27 S24G36    29.82F
DES MOINES     PTSUNNY   79  36  21 S25G31    29.80F
6HR MIN TEMP:  53; 6HR MAX TEMP:  79;

GRINNELL*        N/A     77  32  19 S25G32    29.83F
KNOXVILLE *    SUNNY     75  36  23 S26G40    29.81F
MARSHALLTOWN     N/A     77  35  21 S28G37    29.79F
6HR MIN TEMP:  47; 6HR MAX TEMP:  77;

PELLA *          N/A     77  42  29 S23G30    29.84F
PERRY *          N/A     79  36  21 S29G36    29.74F
$$

IAZ004>006-015-016-023>025-035-036-011900-
   NORTH CENTRAL IOWA

CITY           SKY/WX    TMP DP  RH WIND       PRES   REMARKS
ALGONA *       SUNNY     79  34  19 S36G48    29.68F
CLARION *      SUNNY     77  36  22 S39G46    29.71F
ESTHERVILLE      N/A     77  37  23 S39G48    29.62F
6HR MIN TEMP:  40; 6HR MAX TEMP:  77;

FORT DODGE *     N/A     79  37  22 S26G36    29.73F
MASON CITY       N/A     76  36  23 S31G39    29.73F
6HR MIN TEMP:  33; 6HR MAX TEMP:  77;

FOREST CITY *  SUNNY     73  34  23 S30G39    29.71F
IOWA FALLS *     N/A     77  36  22 S28G38    29.78F
$$

IAZ007>011-017>019-026>030-037>042-050>054-066-011900-
   NORTHEAST IOWA

CITY           SKY/WX    TMP DP  RH WIND       PRES   REMARKS
CEDAR RAPIDS     N/A     78  34  20 S23G32    29.84F
6HR MIN TEMP:  42; 6HR MAX TEMP:  78;

CHARLES CITY * SUNNY     75  37  25 S30       29.76F
CLINTON *        N/A     77  36  22 S18G24    29.93F
DECORAH *      SUNNY     72  37  28 S23G35    29.77F
DUBUQUE          N/A     74  35  24 S18       29.88F
6HR MIN TEMP:  40; 6HR MAX TEMP:  74;

MONTICELLO *   SUNNY     75  36  23 S16G28    29.86F
OELWEIN *      SUNNY     75  36  23 S31       29.81F
WATERLOO         N/A     78  33  19 S24G36    29.78F
6HR MIN TEMP:  40; 6HR MAX TEMP:  78;

$$

IAZ064-065-067-068-078-011900-
   EAST CENTRAL IOWA

CITY           SKY/WX    TMP DP  RH WIND       PRES   REMARKS
DAVENPORT        N/A     77  33  20 S24G30    29.90F
6HR MIN TEMP:  39; 6HR MAX TEMP:  77;

IOWA CITY        N/A     77  34  21 S20G30    29.88F
6HR MIN TEMP:  39; 6HR MAX TEMP:  78;

MT. PLEASANT *   N/A     76  34  21 S20G25    29.90F
MUSCATINE *    SUNNY     77  34  20 S20G30    29.89F
QUAD CITIES      N/A     78  33  19 S20G30    29.90F
6HR MIN TEMP:  39; 6HR MAX TEMP:  78;

$$

IAZ062-063-075>077-085>089-095>099-011900-
   SOUTHEAST IOWA

CITY           SKY/WX    TMP DP  RH WIND       PRES   REMARKS
BURLINGTON       N/A     76  36  23 S21G26    29.91F
6HR MIN TEMP:  46; 6HR MAX TEMP:  77;

FAIRFIELD *    SUNNY     77  34  20 S23G31    29.88F
FORT MADISON * SUNNY     75  36  23 S20       29.92F
KEOKUK *       SUNNY     73  37  27 S16G22    29.91F
OSKALOOSA *      N/A     77  34  20 S26G33    29.85F
CENTERVILLE *  SUNNY     75  41  29 S20G26    29.88F
OTTUMWA          N/A     77  35  21 S26G37    29.85F
6HR MIN TEMP:  50; 6HR MAX TEMP:  78;

WASHINGTON *   SUNNY     77  34  20 S25G31    29.87F
$$

ABBREVIATIONS USED IN REMARKS
   TC - TEMPERATURES IN CELSIUS
  WCI - WIND CHILL INDEX
   HX - HEAT INDEX
  VSB - VISIBILITY
$$




USA.gov is the U.S. government's official web portal to all federal, state and local government web resources and services.